Simultaneous Nadir Overpasses (SNOs) Predictions

Prediction of SNOs between LANDSAT-8 and NPP Satellite Orbit:

Table of predicted SNOs for the next 14.0 days since TLE Epoch: 10/19/2019
Index Date (LANDSAT-8) Time (LANDSAT-8) Lat,Lon (LANDSAT-8) SZA (LANDSAT-8 ) Date (NPP) Time (NPP) Lat,Lon (NPP) SZA (NPP ) Distance(km) Time Diff (sec)
1 10/19/2019 06:58:47 70.13, 71.88 79.92 10/19/2019 06:58:05 70.14, 71.84 79.93 1.89 42
2 10/19/2019 07:48:17 -70.01,-120.65 100.19 10/19/2019 07:48:46 -70.00,-120.63 100.20 1.48 29
3 10/21/2019 22:25:36 -70.89, 21.26 98.36 10/21/2019 22:24:28 -70.96, 18.97 98.29 83.54 68
4 10/21/2019 23:15:16 70.08,-172.30 80.83 10/21/2019 23:14:57 70.06,-172.28 80.81 2.55 19
5 10/22/2019 00:04:46 -69.97, -4.82 99.27 10/22/2019 00:05:39 -69.98, -4.83 99.26 0.50 53
6 10/24/2019 14:42:19 -70.14, 136.02 98.18 10/24/2019 14:41:07 -70.16, 136.04 98.16 1.80 72
7 10/24/2019 15:31:46 70.04, -56.48 81.73 10/24/2019 15:31:51 70.04, -56.48 81.74 0.59 5
8 10/24/2019 16:21:18 -69.82, 110.85 98.48 10/24/2019 16:22:30 -69.80, 111.21 98.50 14.11 72
9 10/27/2019 06:58:49 -70.10,-108.16 97.31 10/27/2019 06:58:00 -70.09,-108.09 97.32 2.88 49
10 10/27/2019 07:48:16 69.99, 59.33 82.60 10/27/2019 07:48:44 69.97, 59.39 82.59 2.90 28
11 10/29/2019 22:25:35 70.92,-158.69 84.41 10/29/2019 22:24:28 71.01,-161.11 84.50 88.27 67
12 10/29/2019 23:15:18 -70.10, 7.73 96.41 10/29/2019 23:14:54 -70.07, 7.70 96.44 3.40 24
13 10/30/2019 00:04:46 69.94, 175.14 83.44 10/30/2019 00:05:38 69.96, 175.18 83.47 3.10 52
14 11/01/2019 14:42:17 70.15, -43.95 84.51 11/01/2019 14:41:05 70.16, -43.97 84.51 0.76 72
15 11/01/2019 15:31:47 -70.05, 123.54 95.59 11/01/2019 15:31:47 -70.06, 123.49 95.58 2.11 0
16 11/01/2019 16:21:16 69.83, -69.13 84.20 11/01/2019 16:22:28 69.79, -68.80 84.17 13.51 72




NCC Satellite Simultaneous Nadir Overpasses (SNOs) Prediction Service
